| time (UTC) | temp F | wind direction | speed knots | gust knots | rain 1hr in | rain 24hr in | rain mn in | humidity % | barometer mb |
| 20260510153506 | 68 | 121 | 0.0 | 0.9 | 0.00 | 0.00 | 0.00 | 75 | 1016.7 |
| 20260510153013 | 68 | 121 | 0.0 | 0.9 | 0.00 | 0.00 | 0.00 | 75 | 1016.8 |
| 20260510152507 | 68 | 121 | 0.0 | 0.9 | 0.00 | 0.00 | 0.00 | 75 | 1016.8 |
| 20260510152009 | 68 | 121 | 0.0 | 0.9 | 0.00 | 0.00 | 0.00 | 75 | 1016.8 |
| 20260510151521 | 67 | 121 | 0.0 | 0.9 | 0.00 | 0.00 | 0.00 | 74 | 1016.8 |
| 20260510151010 | 67 | 121 | 0.0 | 1.7 | 0.00 | 0.00 | 0.00 | 73 | 1016.8 |
| 20260510150507 | 67 | 121 | 0.0 | 1.7 | 0.00 | 0.00 | 0.00 | 75 | 1016.7 |
| 20260510150004 | 67 | 121 | 0.0 | 1.7 | 0.00 | 0.00 | 0.00 | 74 | 1016.6 |
| 20260510145502 | 67 | 105 | 0.0 | 1.7 | 0.00 | 0.00 | 0.00 | 76 | 1016.5 |
| 20260510145003 | 67 | 131 | 0.0 | 1.7 | 0.00 | 0.00 | 0.00 | 77 | 1016.5 |
| 20260510144517 | 67 | 131 | 0.0 | 1.7 | 0.00 | 0.00 | 0.00 | 78 | 1016.4 |
| 20260510144007 | 67 | 131 | 0.0 | 1.7 | 0.00 | 0.00 | 0.00 | 78 | 1016.3 |
| 20260510143506 | 66 | 143 | 0.0 | 0.9 | 0.00 | 0.00 | 0.00 | 76 | 1016.3 |
| 20260510143017 | 66 | 117 | 0.0 | 1.7 | 0.00 | 0.00 | 0.00 | 77 | 1016.3 |
| 20260510142506 | 66 | 119 | 0.0 | 1.7 | 0.00 | 0.00 | 0.00 | 77 | 1016.3 |
| 20260510142007 | 66 | 119 | 0.0 | 0.9 | 0.00 | 0.00 | 0.00 | 78 | 1016.2 |
| 20260510141526 | 65 | 119 | 0.0 | 0.9 | 0.00 | 0.00 | 0.00 | 79 | 1016.1 |
| 20260510141008 | 65 | 119 | 0.0 | 1.7 | 0.00 | 0.00 | 0.00 | 80 | 1016.0 |
| 20260510140508 | 65 | 119 | 0.0 | 1.7 | 0.00 | 0.00 | 0.00 | 79 | 1016.0 |
| 20260510140024 | 64 | 147 | 0.0 | 1.7 | 0.00 | 0.00 | 0.00 | 79 | 1015.9 |
| 20260510135507 | 64 | 173 | 0.0 | 0.9 | 0.00 | 0.00 | 0.00 | 81 | 1015.9 |
| 20260510135008 | 64 | 175 | 0.0 | 0.9 | 0.00 | 0.00 | 0.00 | 81 | 1015.8 |
| 20260510134508 | 63 | 175 | 0.0 | 0.9 | 0.00 | 0.00 | 0.00 | 81 | 1015.8 |
| 20260510134004 | 63 | 175 | 0.0 | 0.9 | 0.00 | 0.00 | 0.00 | 81 | 1015.7 |
| 20260510133504 | 62 | 175 | 0.0 | 0.9 | 0.00 | 0.00 | 0.00 | 83 | 1015.7 |
| 20260510133013 | 62 | 175 | 0.0 | 0.9 | 0.00 | 0.00 | 0.00 | 84 | 1015.6 |
| 20260510132507 | 62 | 175 | 0.0 | 0.9 | 0.00 | 0.00 | 0.00 | 85 | 1015.5 |
| 20260510132007 | 61 | 175 | 0.0 | 0.9 | 0.00 | 0.00 | 0.00 | 86 | 1015.5 |
| 20260510131514 | 61 | 175 | 0.0 | 0.0 | 0.00 | 0.00 | 0.00 | 87 | 1015.5 |
| 20260510131007 | 60 | 175 | 0.0 | 0.0 | 0.00 | 0.00 | 0.00 | 87 | 1015.4 |
| 20260510130510 | 60 | 174 | 0.0 | 0.0 | 0.00 | 0.00 | 0.00 | 88 | 1015.3 |
| 20260510130020 | 60 | 174 | 0.0 | 0.0 | 0.00 | 0.00 | 0.00 | 89 | 1015.2 |
| 20260510125511 | 59 | 174 | 0.0 | 0.0 | 0.00 | 0.00 | 0.00 | 90 | 1015.0 |
| 20260510125009 | 59 | 174 | 0.0 | 0.0 | 0.00 | 0.00 | 0.00 | 90 | 1015.1 |
| 20260510124522 | 59 | 174 | 0.0 | 0.0 | 0.00 | 0.00 | 0.00 | 89 | 1015.1 |
| 20260510124012 | 58 | 174 | 0.0 | 0.0 | 0.00 | 0.00 | 0.00 | 89 | 1015.1 |
| 20260510123511 | 58 | 174 | 0.0 | 0.0 | 0.00 | 0.00 | 0.00 | 89 | 1015.1 |
| 20260510123009 | 58 | 174 | 0.0 | 0.0 | 0.00 | 0.00 | 0.00 | 89 | 1015.1 |
| 20260510122509 | 58 | 174 | 0.0 | 0.0 | 0.00 | 0.00 | 0.00 | 90 | 1015.1 |
| 20260510122005 | 57 | 174 | 0.0 | 0.0 | 0.00 | 0.00 | 0.00 | 90 | 1015.2 |
| 20260510121514 | 57 | 174 | 0.0 | 0.0 | 0.00 | 0.00 | 0.00 | 90 | 1015.1 |
| 20260510121006 | 57 | 174 | 0.0 | 0.0 | 0.00 | 0.00 | 0.00 | 89 | 1015.2 |
| 20260510120511 | 56 | 174 | 0.0 | 0.9 | 0.00 | 0.00 | 0.00 | 89 | 1015.3 |
| 20260510120020 | 56 | 174 | 0.0 | 0.9 | 0.00 | 0.00 | 0.00 | 90 | 1015.2 |
| 20260510115510 | 56 | 174 | 0.0 | 0.0 | 0.00 | 0.00 | 0.00 | 91 | 1015.1 |
| 20260510115011 | 56 | 174 | 0.0 | 0.0 | 0.00 | 0.00 | 0.00 | 91 | 1015.0 |
| 20260510114529 | 56 | 175 | 0.0 | 0.9 | 0.00 | 0.00 | 0.00 | 91 | 1015.0 |
| 20260510114011 | 55 | 172 | 0.0 | 0.9 | 0.00 | 0.00 | 0.00 | 91 | 1015.0 |
| 20260510113507 | 55 | 171 | 0.0 | 0.9 | 0.00 | 0.00 | 0.00 | 91 | 1015.0 |
| 20260510113034 | 55 | 171 | 0.0 | 0.0 | 0.00 | 0.00 | 0.00 | 91 | 1014.8 |
| 20260510112513 | 55 | 171 | 0.0 | 0.0 | 0.00 | 0.00 | 0.00 | 91 | 1014.6 |
| 20260510112008 | 55 | 171 | 0.0 | 0.0 | 0.00 | 0.00 | 0.00 | 91 | 1014.5 |
| 20260510111515 | 55 | 171 | 0.0 | 0.0 | 0.00 | 0.00 | 0.00 | 91 | 1014.6 |
| 20260510111008 | 55 | 171 | 0.0 | 0.0 | 0.00 | 0.00 | 0.00 | 91 | 1014.5 |
| 20260510110507 | 54 | 171 | 0.0 | 0.0 | 0.00 | 0.00 | 0.00 | 91 | 1014.4 |
| 20260510110020 | 54 | 171 | 0.0 | 0.0 | 0.00 | 0.00 | 0.00 | 91 | 1014.7 |
| 20260510105507 | 54 | 171 | 0.0 | 0.0 | 0.00 | 0.00 | 0.00 | 91 | 1014.7 |
| 20260510105011 | 54 | 171 | 0.0 | 0.0 | 0.00 | 0.00 | 0.00 | 91 | 1014.5 |
| 20260510104532 | 54 | 171 | 0.0 | 0.0 | 0.00 | 0.00 | 0.00 | 91 | 1014.2 |
| 20260510104011 | 54 | 171 | 0.0 | 0.0 | 0.00 | 0.00 | 0.00 | 91 | 1014.0 |
| 20260510103510 | 54 | 171 | 0.0 | 0.0 | 0.00 | 0.00 | 0.00 | 91 | 1013.8 |
| 20260510103027 | 54 | 171 | 0.0 | 0.0 | 0.00 | 0.00 | 0.00 | 91 | 1013.9 |
| 20260510102509 | 54 | 171 | 0.0 | 0.0 | 0.00 | 0.00 | 0.00 | 91 | 1013.9 |
| 20260510102010 | 54 | 171 | 0.0 | 0.0 | 0.00 | 0.00 | 0.00 | 90 | 1013.9 |
| 20260510101526 | 54 | 171 | 0.0 | 0.0 | 0.00 | 0.00 | 0.00 | 90 | 1013.8 |
| 20260510101008 | 54 | 171 | 0.0 | 0.0 | 0.00 | 0.00 | 0.00 | 90 | 1013.8 |
| 20260510100504 | 54 | 171 | 0.0 | 0.0 | 0.00 | 0.00 | 0.00 | 90 | 1013.6 |
| 20260510100014 | 54 | 171 | 0.0 | 0.0 | 0.00 | 0.00 | 0.00 | 90 | 1013.6 |
| 20260510095508 | 54 | 171 | 0.0 | 0.0 | 0.00 | 0.00 | 0.00 | 90 | 1013.5 |
| 20260510095008 | 54 | 171 | 0.0 | 0.0 | 0.00 | 0.00 | 0.00 | 90 | 1013.5 |
| 20260510094533 | 54 | 171 | 0.0 | 0.0 | 0.00 | 0.00 | 0.00 | 90 | 1013.5 |
| 20260510094010 | 54 | 171 | 0.0 | 0.0 | 0.00 | 0.00 | 0.00 | 90 | 1013.5 |
| 20260510093511 | 54 | 171 | 0.0 | 0.0 | 0.00 | 0.00 | 0.00 | 90 | 1013.6 |
| 20260510093026 | 54 | 171 | 0.0 | 0.0 | 0.00 | 0.00 | 0.00 | 90 | 1013.6 |
| 20260510092510 | 54 | 171 | 0.0 | 0.0 | 0.00 | 0.00 | 0.00 | 89 | 1013.5 |
| 20260510092010 | 54 | 171 | 0.0 | 0.0 | 0.00 | 0.00 | 0.00 | 89 | 1013.4 |
| 20260510091527 | 54 | 171 | 0.0 | 0.0 | 0.00 | 0.00 | 0.00 | 89 | 1013.5 |
| 20260510091008 | 54 | 171 | 0.0 | 0.0 | 0.00 | 0.00 | 0.00 | 89 | 1013.4 |
| 20260510090508 | 54 | 171 | 0.0 | 0.0 | 0.00 | 0.00 | 0.00 | 89 | 1013.4 |
| 20260510090029 | 55 | 171 | 0.0 | 0.0 | 0.00 | 0.00 | 0.00 | 89 | 1013.4 |
| 20260510085510 | 55 | 171 | 0.0 | 0.0 | 0.00 | 0.00 | 0.00 | 90 | 1013.4 |
| 20260510085008 | 55 | 171 | 0.0 | 0.0 | 0.00 | 0.00 | 0.00 | 90 | 1013.5 |
| 20260510084521 | 55 | 171 | 0.0 | 0.0 | 0.00 | 0.00 | 0.00 | 89 | 1013.5 |
| 20260510084007 | 55 | 171 | 0.0 | 0.0 | 0.00 | 0.00 | 0.00 | 89 | 1013.3 |
| 20260510083509 | 55 | 171 | 0.0 | 0.0 | 0.00 | 0.00 | 0.00 | 89 | 1013.3 |
| 20260510083021 | 55 | 171 | 0.0 | 0.0 | 0.00 | 0.00 | 0.00 | 88 | 1013.4 |
| 20260510082508 | 55 | 171 | 0.0 | 0.0 | 0.00 | 0.00 | 0.00 | 88 | 1013.3 |
| 20260510082007 | 55 | 171 | 0.0 | 0.0 | 0.00 | 0.00 | 0.00 | 88 | 1013.1 |
| 20260510081535 | 55 | 171 | 0.0 | 0.0 | 0.00 | 0.00 | 0.00 | 88 | 1012.9 |
| 20260510081011 | 55 | 171 | 0.0 | 0.0 | 0.00 | 0.00 | 0.00 | 88 | 1012.7 |
| 20260510080507 | 55 | 171 | 0.0 | 0.0 | 0.00 | 0.00 | 0.00 | 88 | 1012.6 |
| 20260510080031 | 56 | 171 | 0.0 | 0.0 | 0.00 | 0.00 | 0.00 | 87 | 1012.4 |
| 20260510075508 | 56 | 171 | 0.0 | 0.0 | 0.00 | 0.00 | 0.00 | 87 | 1012.3 |
| 20260510075008 | 56 | 171 | 0.0 | 0.0 | 0.00 | 0.00 | 0.00 | 87 | 1012.2 |
| 20260510074528 | 56 | 171 | 0.0 | 0.0 | 0.00 | 0.00 | 0.00 | 88 | 1012.3 |
| 20260510074006 | 56 | 171 | 0.0 | 0.0 | 0.00 | 0.00 | 0.00 | 87 | 1012.4 |
| 20260510073507 | 56 | 171 | 0.0 | 0.0 | 0.00 | 0.00 | 0.00 | 87 | 1012.4 |
| 20260510073020 | 56 | 171 | 0.0 | 0.0 | 0.00 | 0.00 | 0.00 | 87 | 1012.5 |
| 20260510072509 | 57 | 171 | 0.0 | 0.0 | 0.00 | 0.00 | 0.00 | 86 | 1012.6 |
| 20260510072003 | 57 | 171 | 0.0 | 0.0 | 0.00 | 0.00 | 0.00 | 87 | 1012.6 |
| 20260510071503 | 57 | 171 | 0.0 | 0.0 | 0.00 | 0.00 | 0.00 | 86 | 1012.6 |
| 20260510071004 | 57 | 171 | 0.0 | 0.0 | 0.00 | 0.00 | 0.00 | 86 | 1012.5 |
| 20260510070504 | 57 | 171 | 0.0 | 0.0 | 0.00 | 0.00 | 0.00 | 85 | 1012.6 |
| 20260510070008 | 57 | 171 | 0.0 | 0.0 | 0.00 | 0.00 | 0.00 | 86 | 1012.6 |
| 20260510065506 | 57 | 171 | 0.0 | 0.0 | 0.00 | 0.00 | 0.00 | 86 | 1012.7 |
| 20260510065009 | 57 | 171 | 0.0 | 0.0 | 0.00 | 0.00 | 0.00 | 87 | 1012.7 |
| 20260510064516 | 57 | 171 | 0.0 | 0.0 | 0.00 | 0.00 | 0.00 | 86 | 1012.8 |
| 20260510064006 | 57 | 171 | 0.0 | 0.0 | 0.00 | 0.00 | 0.00 | 86 | 1012.9 |
| 20260510063508 | 57 | 171 | 0.0 | 0.0 | 0.00 | 0.00 | 0.00 | 85 | 1013.0 |
| 20260510063021 | 57 | 171 | 0.0 | 0.0 | 0.00 | 0.00 | 0.00 | 86 | 1013.2 |
| 20260510062508 | 56 | 171 | 0.0 | 0.0 | 0.00 | 0.00 | 0.00 | 87 | 1013.1 |
| 20260510062013 | 56 | 172 | 0.0 | 0.0 | 0.00 | 0.00 | 0.00 | 86 | 1013.1 |
| 20260510061528 | 56 | 171 | 0.0 | 0.0 | 0.00 | 0.00 | 0.00 | 86 | 1013.1 |
| 20260510061009 | 56 | 171 | 0.0 | 0.0 | 0.00 | 0.00 | 0.00 | 86 | 1013.1 |
| 20260510060506 | 56 | 171 | 0.0 | 0.0 | 0.00 | 0.00 | 0.00 | 86 | 1013.1 |
| 20260510060009 | 56 | 171 | 0.0 | 0.0 | 0.00 | 0.00 | 0.00 | 86 | 1013.0 |
| 20260510055507 | 56 | 171 | 0.0 | 0.0 | 0.00 | 0.00 | 0.00 | 85 | 1013.1 |
| 20260510055007 | 57 | 171 | 0.0 | 0.0 | 0.00 | 0.00 | 0.00 | 84 | 1013.1 |
| 20260510054510 | 57 | 171 | 0.0 | 0.0 | 0.00 | 0.00 | 0.00 | 84 | 1013.1 |
| 20260510054006 | 57 | 171 | 0.0 | 0.0 | 0.00 | 0.00 | 0.00 | 84 | 1013.1 |
| 20260510053507 | 57 | 171 | 0.0 | 0.0 | 0.00 | 0.00 | 0.00 | 83 | 1013.0 |
| 20260510053016 | 57 | 171 | 0.0 | 0.0 | 0.00 | 0.00 | 0.00 | 84 | 1013.0 |
| 20260510052507 | 57 | 171 | 0.0 | 0.0 | 0.00 | 0.00 | 0.00 | 85 | 1012.9 |
| 20260510052007 | 57 | 171 | 0.0 | 0.0 | 0.00 | 0.00 | 0.00 | 84 | 1012.7 |
| 20260510051531 | 58 | 171 | 0.0 | 0.0 | 0.00 | 0.00 | 0.00 | 84 | 1012.7 |
| 20260510051007 | 58 | 171 | 0.0 | 0.0 | 0.00 | 0.00 | 0.00 | 83 | 1012.7 |
| 20260510050509 | 58 | 171 | 0.0 | 0.0 | 0.00 | 0.00 | 0.00 | 82 | 1012.6 |
| 20260510050026 | 58 | 171 | 0.0 | 0.9 | 0.00 | 0.00 | 0.00 | 80 | 1012.8 |
| 20260510045506 | 58 | 171 | 0.0 | 0.9 | 0.00 | 0.00 | 0.00 | 79 | 1012.7 |
| 20260510045003 | 59 | 171 | 0.0 | 0.0 | 0.00 | 0.00 | 0.00 | 79 | 1012.6 |
| 20260510044512 | 59 | 172 | 0.0 | 0.0 | 0.00 | 0.00 | 0.00 | 78 | 1012.5 |
| 20260510044006 | 59 | 171 | 0.0 | 0.0 | 0.00 | 0.00 | 0.00 | 78 | 1012.4 |
| 20260510043507 | 59 | 172 | 0.0 | 0.9 | 0.00 | 0.00 | 0.00 | 77 | 1012.4 |
| 20260510043020 | 60 | 171 | 0.0 | 0.9 | 0.00 | 0.00 | 0.00 | 76 | 1012.4 |
| 20260510042508 | 60 | 171 | 0.0 | 0.0 | 0.00 | 0.00 | 0.00 | 76 | 1012.3 |
| 20260510042007 | 60 | 171 | 0.0 | 0.0 | 0.00 | 0.00 | 0.00 | 75 | 1012.3 |
| 20260510041520 | 60 | 171 | 0.0 | 0.0 | 0.00 | 0.00 | 0.00 | 75 | 1012.3 |
| 20260510041007 | 61 | 171 | 0.0 | 0.9 | 0.00 | 0.00 | 0.00 | 75 | 1012.3 |
| 20260510040508 | 61 | 171 | 0.0 | 0.9 | 0.00 | 0.00 | 0.00 | 74 | 1012.3 |
| 20260510040025 | 61 | 171 | 0.0 | 0.9 | 0.00 | 0.00 | 0.00 | 75 | 1012.3 |
| 20260510035507 | 61 | 171 | 0.0 | 0.9 | 0.00 | 0.00 | 0.00 | 74 | 1012.3 |
| 20260510035013 | 61 | 171 | 0.0 | 0.9 | 0.00 | 0.00 | 0.00 | 75 | 1012.3 |
| 20260510034528 | 61 | 171 | 0.0 | 0.9 | 0.00 | 0.00 | 0.00 | 75 | 1012.3 |
| 20260510034007 | 61 | 171 | 0.0 | 1.7 | 0.00 | 0.00 | 0.00 | 73 | 1012.3 |
| 20260510033507 | 61 | 171 | 0.0 | 1.7 | 0.00 | 0.00 | 0.00 | 72 | 1012.2 |
| 20260510033013 | 61 | 127 | 0.0 | 0.9 | 0.00 | 0.00 | 0.00 | 72 | 1012.2 |
| 20260510032511 | 61 | 120 | 0.0 | 1.7 | 0.00 | 0.00 | 0.00 | 72 | 1012.2 |
| 20260510032009 | 61 | 120 | 0.0 | 1.7 | 0.00 | 0.00 | 0.00 | 72 | 1012.2 |
| 20260510031517 | 61 | 144 | 0.0 | 1.7 | 0.00 | 0.00 | 0.00 | 72 | 1012.1 |
| 20260510031007 | 61 | 144 | 0.0 | 1.7 | 0.00 | 0.00 | 0.00 | 70 | 1012.2 |
| 20260510030507 | 62 | 144 | 0.0 | 0.0 | 0.00 | 0.00 | 0.00 | 72 | 1012.2 |
| 20260510030026 | 62 | 144 | 0.0 | 0.0 | 0.00 | 0.00 | 0.00 | 71 | 1012.2 |
| 20260510025510 | 62 | 144 | 0.0 | 0.0 | 0.00 | 0.00 | 0.00 | 70 | 1012.1 |
| 20260510025009 | 62 | 144 | 0.0 | 0.0 | 0.00 | 0.00 | 0.00 | 68 | 1012.1 |
| 20260510024526 | 63 | 144 | 0.0 | 0.0 | 0.00 | 0.00 | 0.00 | 68 | 1012.0 |
| 20260510024007 | 63 | 144 | 0.0 | 0.0 | 0.00 | 0.00 | 0.00 | 67 | 1011.9 |
| 20260510023510 | 63 | 144 | 0.0 | 0.0 | 0.00 | 0.00 | 0.00 | 67 | 1011.9 |
| 20260510023028 | 64 | 144 | 0.0 | 0.0 | 0.00 | 0.00 | 0.00 | 66 | 1011.8 |
| 20260510022508 | 64 | 144 | 0.0 | 0.0 | 0.00 | 0.00 | 0.00 | 64 | 1011.7 |
| 20260510022005 | 65 | 144 | 0.0 | 0.0 | 0.00 | 0.00 | 0.00 | 64 | 1011.6 |
| 20260510021525 | 65 | 144 | 0.0 | 0.0 | 0.00 | 0.00 | 0.00 | 64 | 1011.6 |
| 20260510021007 | 66 | 144 | 0.0 | 0.0 | 0.00 | 0.00 | 0.00 | 63 | 1011.5 |
| 20260510020509 | 66 | 144 | 0.0 | 0.0 | 0.00 | 0.00 | 0.00 | 64 | 1011.5 |
| 20260510020022 | 66 | 144 | 0.0 | 0.0 | 0.00 | 0.00 | 0.00 | 63 | 1011.4 |
| 20260510015508 | 67 | 144 | 0.0 | 0.0 | 0.00 | 0.00 | 0.00 | 61 | 1011.3 |
| 20260510015009 | 67 | 144 | 0.0 | 0.0 | 0.00 | 0.00 | 0.00 | 59 | 1011.3 |
| 20260510014528 | 68 | 144 | 0.0 | 0.0 | 0.00 | 0.00 | 0.00 | 57 | 1011.2 |
| 20260510014009 | 68 | 144 | 0.0 | 0.0 | 0.00 | 0.00 | 0.00 | 59 | 1011.2 |
| 20260510013508 | 69 | 144 | 0.0 | 0.9 | 0.00 | 0.00 | 0.00 | 57 | 1011.1 |
| 20260510013025 | 69 | 144 | 0.0 | 0.9 | 0.00 | 0.00 | 0.00 | 56 | 1011.0 |
| 20260510012513 | 70 | 144 | 0.0 | 0.0 | 0.00 | 0.00 | 0.00 | 56 | 1010.9 |
| 20260510012010 | 71 | 144 | 0.0 | 0.0 | 0.00 | 0.00 | 0.00 | 56 | 1010.9 |
| 20260510011512 | 71 | 144 | 0.0 | 0.9 | 0.00 | 0.00 | 0.00 | 52 | 1010.9 |
| 20260510011005 | 72 | 144 | 0.0 | 0.9 | 0.00 | 0.00 | 0.00 | 54 | 1010.8 |
| 20260510010507 | 73 | 155 | 0.0 | 0.9 | 0.00 | 0.00 | 0.00 | 54 | 1010.8 |
| 20260510010017 | 74 | 154 | 0.0 | 0.0 | 0.00 | 0.00 | 0.00 | 51 | 1010.7 |
| 20260510005508 | 74 | 154 | 0.0 | 0.0 | 0.00 | 0.00 | 0.00 | 49 | 1010.6 |
| 20260510005008 | 75 | 154 | 0.0 | 0.0 | 0.00 | 0.00 | 0.00 | 50 | 1010.7 |
| 20260510004522 | 75 | 154 | 0.0 | 0.9 | 0.00 | 0.00 | 0.00 | 49 | 1010.6 |
| 20260510004011 | 76 | 154 | 0.0 | 0.9 | 0.00 | 0.00 | 0.00 | 46 | 1010.5 |
| 20260510003508 | 77 | 154 | 0.0 | 0.9 | 0.00 | 0.00 | 0.00 | 45 | 1010.4 |
| 20260510003028 | 77 | 154 | 0.0 | 1.7 | 0.00 | 0.00 | 0.00 | 43 | 1010.4 |
| 20260510002513 | 78 | 150 | 0.0 | 1.7 | 0.00 | 0.00 | 0.00 | 42 | 1010.3 |
| 20260510002008 | 78 | 156 | 0.0 | 1.7 | 0.00 | 0.00 | 0.00 | 42 | 1010.3 |
| 20260510001525 | 78 | 120 | 0.0 | 1.7 | 0.00 | 0.00 | 0.00 | 41 | 1010.3 |
| 20260510001011 | 78 | 120 | 0.0 | 1.7 | 0.00 | 0.00 | 0.00 | 40 | 1010.3 |
| 20260510000509 | 79 | 128 | 0.0 | 1.7 | 0.00 | 0.00 | 0.00 | 41 | 1010.2 |
| 20260510000020 | 79 | 182 | 0.0 | 1.7 | 0.00 | 0.00 | 0.00 | 42 | 1010.1 |
| 20260509235506 | 79 | 135 | 0.0 | 1.7 | 0.00 | 0.00 | 0.00 | 40 | 1010.1 |
| 20260509235010 | 80 | 97 | 0.0 | 2.6 | 0.00 | 0.00 | 0.00 | 40 | 1010.0 |
| 20260509234519 | 80 | 90 | 0.0 | 2.6 | 0.00 | 0.00 | 0.00 | 38 | 1010.0 |
| 20260509234013 | 81 | 114 | 0.0 | 5.2 | 0.00 | 0.00 | 0.00 | 37 | 1010.0 |
| 20260509233508 | 81 | 113 | 1.7 | 5.2 | 0.00 | 0.00 | 0.00 | 35 | 1010.0 |
| 20260509233023 | 82 | 171 | 0.0 | 2.6 | 0.00 | 0.00 | 0.00 | 36 | 1010.0 |
| 20260509232506 | 83 | 144 | 0.0 | 0.9 | 0.00 | 0.00 | 0.00 | 39 | 1010.0 |
| 20260509232002 | 83 | 144 | 0.0 | 1.7 | 0.00 | 0.00 | 0.00 | 35 | 1009.9 |
| 20260509231507 | 84 | 144 | 0.0 | 2.6 | 0.00 | 0.00 | 0.00 | 33 | 1010.0 |
| 20260509231004 | 84 | 142 | 0.9 | 2.6 | 0.00 | 0.00 | 0.00 | 27 | 1009.9 |
| 20260509230505 | 84 | 240 | 0.0 | 0.9 | 0.00 | 0.00 | 0.00 | 27 | 1010.0 |
| 20260509230015 | 84 | 240 | 0.0 | 1.7 | 0.00 | 0.00 | 0.00 | 32 | 1010.0 |
| 20260509225506 | 84 | 246 | 0.0 | 1.7 | 0.00 | 0.00 | 0.00 | 27 | 1010.0 |
| 20260509225006 | 84 | 245 | 0.0 | 1.7 | 0.00 | 0.00 | 0.00 | 29 | 1010.0 |
| 20260509224517 | 83 | 139 | 0.0 | 2.6 | 0.00 | 0.00 | 0.00 | 28 | 1010.0 |
| 20260509224010 | 83 | 130 | 0.9 | 3.5 | 0.00 | 0.00 | 0.00 | 30 | 1009.9 |
| 20260509223510 | 83 | 268 | 1.7 | 3.5 | 0.00 | 0.00 | 0.00 | 29 | 1009.9 |
| 20260509223005 | 83 | 32 | 0.0 | 2.6 | 0.00 | 0.00 | 0.00 | 32 | 1009.9 |
| 20260509222503 | 84 | 74 | 0.9 | 2.6 | 0.00 | 0.00 | 0.00 | 32 | 1009.8 |
| 20260509222006 | 84 | 268 | 0.9 | 2.6 | 0.00 | 0.00 | 0.00 | 28 | 1009.8 |
| 20260509221505 | 84 | 304 | 0.9 | 2.6 | 0.00 | 0.00 | 0.00 | 29 | 1009.7 |
| 20260509221005 | 84 | 331 | 0.9 | 2.6 | 0.00 | 0.00 | 0.00 | 31 | 1009.7 |
| 20260509220503 | 83 | 38 | 0.0 | 2.6 | 0.00 | 0.00 | 0.00 | 32 | 1009.6 |
| 20260509220010 | 83 | 43 | 0.9 | 2.6 | 0.00 | 0.00 | 0.00 | 33 | 1009.6 |
| 20260509215504 | 83 | 32 | 0.0 | 3.5 | 0.00 | 0.00 | 0.00 | 31 | 1009.7 |
| 20260509215004 | 83 | 125 | 0.9 | 3.5 | 0.00 | 0.00 | 0.00 | 31 | 1009.7 |
| 20260509214514 | 84 | 99 | 0.9 | 2.6 | 0.00 | 0.00 | 0.00 | 29 | 1009.7 |
| 20260509214008 | 83 | 171 | 0.0 | 1.7 | 0.00 | 0.00 | 0.00 | 31 | 1009.6 |
| 20260509213508 | 83 | 85 | 0.0 | 3.5 | 0.00 | 0.00 | 0.00 | 30 | 1009.7 |
| 20260509213020 | 83 | 242 | 0.9 | 5.2 | 0.00 | 0.00 | 0.00 | 29 | 1009.8 |
| 20260509212509 | 83 | 40 | 0.9 | 5.2 | 0.00 | 0.00 | 0.00 | 30 | 1009.8 |
| 20260509212004 | 83 | 110 | 0.0 | 3.5 | 0.00 | 0.00 | 0.00 | 33 | 1009.8 |
| 20260509211509 | 83 | 302 | 0.9 | 3.5 | 0.00 | 0.00 | 0.00 | 31 | 1009.9 |
| 20260509211008 | 83 | 257 | 1.7 | 5.2 | 0.00 | 0.00 | 0.00 | 31 | 1009.9 |
| 20260509210504 | 84 | 294 | 0.9 | 5.2 | 0.00 | 0.00 | 0.00 | 30 | 1010.0 |
| 20260509210011 | 84 | 5 | 0.0 | 1.7 | 0.00 | 0.00 | 0.00 | 34 | 1010.1 |
| 20260509205505 | 83 | 119 | 0.0 | 3.5 | 0.00 | 0.00 | 0.00 | 33 | 1010.2 |
| 20260509205007 | 83 | 260 | 0.9 | 3.5 | 0.00 | 0.00 | 0.00 | 29 | 1010.2 |
| 20260509204515 | 83 | 140 | 0.9 | 3.5 | 0.00 | 0.00 | 0.00 | 31 | 1010.3 |
| 20260509204012 | 83 | 91 | 0.0 | 3.5 | 0.00 | 0.00 | 0.00 | 29 | 1010.3 |
| 20260509203505 | 83 | 121 | 0.9 | 4.3 | 0.00 | 0.00 | 0.00 | 33 | 1010.3 |
| 20260509203024 | 83 | 227 | 0.9 | 4.3 | 0.00 | 0.00 | 0.00 | 32 | 1010.3 |
| 20260509202511 | 83 | 93 | 0.9 | 2.6 | 0.00 | 0.00 | 0.00 | 31 | 1010.4 |
| 20260509202011 | 83 | 135 | 0.9 | 2.6 | 0.00 | 0.00 | 0.00 | 33 | 1010.6 |
| 20260509201526 | 82 | 248 | 0.0 | 3.5 | 0.00 | 0.00 | 0.00 | 32 | 1010.6 |
| 20260509201010 | 82 | 252 | 1.7 | 3.5 | 0.00 | 0.00 | 0.00 | 29 | 1010.7 |
| 20260509200502 | 82 | 246 | 0.9 | 3.5 | 0.00 | 0.00 | 0.00 | 33 | 1010.7 |
| 20260509200006 | 82 | 83 | 0.9 | 4.3 | 0.00 | 0.00 | 0.00 | 31 | 1010.8 |
| 20260509195503 | 83 | 124 | 0.9 | 4.3 | 0.00 | 0.00 | 0.00 | 32 | 1010.9 |
| 20260509195003 | 83 | 135 | 0.9 | 3.5 | 0.00 | 0.00 | 0.00 | 31 | 1010.9 |
| 20260509194511 | 83 | 79 | 0.9 | 2.6 | 0.00 | 0.00 | 0.00 | 31 | 1010.9 |
| 20260509194009 | 83 | 314 | 0.0 | 2.6 | 0.00 | 0.00 | 0.00 | 34 | 1010.9 |
| 20260509193508 | 82 | 310 | 0.9 | 2.6 | 0.00 | 0.00 | 0.00 | 31 | 1011.0 |
| 20260509193018 | 82 | 225 | 0.9 | 3.5 | 0.00 | 0.00 | 0.00 | 32 | 1011.0 |
| 20260509192508 | 82 | 65 | 1.7 | 3.5 | 0.00 | 0.00 | 0.00 | 35 | 1011.0 |
| 20260509192009 | 81 | 213 | 0.9 | 5.2 | 0.00 | 0.00 | 0.00 | 34 | 1011.0 |
| 20260509191526 | 81 | 307 | 0.0 | 5.2 | 0.00 | 0.00 | 0.00 | 32 | 1011.0 |
| 20260509191010 | 81 | 263 | 2.6 | 5.2 | 0.00 | 0.00 | 0.00 | 30 | 1011.0 |
| 20260509190507 | 81 | 5 | 0.9 | 4.3 | 0.00 | 0.00 | 0.00 | 36 | 1011.0 |
| 20260509190026 | 81 | 123 | 1.7 | 5.2 | 0.00 | 0.00 | 0.00 | 38 | 1011.0 |
| 20260509185512 | 80 | 112 | 0.9 | 5.2 | 0.00 | 0.00 | 0.00 | 35 | 1011.0 |
| 20260509185003 | 81 | 102 | 1.7 | 6.1 | 0.00 | 0.00 | 0.00 | 33 | 1011.0 |
| 20260509184515 | 81 | 80 | 1.7 | 6.1 | 0.00 | 0.00 | 0.00 | 35 | 1011.0 |
| 20260509184007 | 80 | 109 | 0.9 | 6.1 | 0.00 | 0.00 | 0.00 | 36 | 1011.1 |
| 20260509183507 | 81 | 111 | 1.7 | 6.1 | 0.00 | 0.00 | 0.00 | 37 | 1011.1 |
| 20260509183014 | 81 | 223 | 0.0 | 3.5 | 0.00 | 0.00 | 0.00 | 35 | 1011.2 |
| 20260509182509 | 81 | 25 | 0.0 | 3.5 | 0.00 | 0.00 | 0.00 | 40 | 1011.2 |
| 20260509182008 | 80 | 132 | 0.9 | 3.5 | 0.00 | 0.00 | 0.00 | 38 | 1011.2 |
| 20260509181520 | 80 | 84 | 0.9 | 4.3 | 0.00 | 0.00 | 0.00 | 40 | 1011.2 |
| 20260509181012 | 80 | 299 | 0.9 | 4.3 | 0.00 | 0.00 | 0.00 | 40 | 1011.1 |
| 20260509180509 | 80 | 46 | 1.7 | 3.5 | 0.00 | 0.00 | 0.00 | 40 | 1011.2 |
| 20260509180026 | 79 | 111 | 0.9 | 4.3 | 0.00 | 0.00 | 0.00 | 44 | 1011.1 |
| 20260509175509 | 79 | 242 | 0.9 | 4.3 | 0.00 | 0.00 | 0.00 | 43 | 1011.2 |
| 20260509175011 | 79 | 258 | 0.0 | 3.5 | 0.00 | 0.00 | 0.00 | 44 | 1011.2 |
| 20260509174527 | 79 | 119 | 0.9 | 3.5 | 0.00 | 0.00 | 0.00 | 46 | 1011.1 |
| 20260509174002 | 78 | 329 | 1.7 | 3.5 | 0.00 | 0.00 | 0.00 | 47 | 1011.2 |
| 20260509173505 | 78 | 72 | 0.0 | 4.3 | 0.00 | 0.00 | 0.00 | 48 | 1011.2 |
| 20260509173037 | 78 | 128 | 0.9 | 4.3 | 0.00 | 0.00 | 0.00 | 50 | 1011.2 |
| 20260509172507 | 78 | 92 | 1.7 | 3.5 | 0.00 | 0.00 | 0.00 | 50 | 1011.2 |
| 20260509172007 | 78 | 262 | 0.0 | 3.5 | 0.00 | 0.00 | 0.00 | 51 | 1011.3 |
| 20260509171527 | 77 | 136 | 0.9 | 3.5 | 0.00 | 0.00 | 0.00 | 48 | 1011.3 |
| 20260509171007 | 77 | 165 | 0.0 | 3.5 | 0.00 | 0.00 | 0.00 | 49 | 1011.4 |
| 20260509170507 | 77 | 165 | 0.9 | 3.5 | 0.00 | 0.00 | 0.00 | 51 | 1011.4 |
| 20260509170024 | 77 | 143 | 0.9 | 3.5 | 0.00 | 0.00 | 0.00 | 51 | 1011.4 |
| 20260509165507 | 77 | 124 | 0.9 | 5.2 | 0.00 | 0.00 | 0.00 | 54 | 1011.4 |
| 20260509165010 | 76 | 5 | 0.9 | 5.2 | 0.00 | 0.00 | 0.00 | 55 | 1011.4 |
| 20260509164523 | 76 | 336 | 0.0 | 2.6 | 0.00 | 0.00 | 0.00 | 56 | 1011.4 |
| 20260509164012 | 76 | 277 | 0.9 | 3.5 | 0.00 | 0.00 | 0.00 | 53 | 1011.4 |
| 20260509163510 | 75 | 253 | 0.9 | 5.2 | 0.00 | 0.00 | 0.00 | 55 | 1011.5 |
| 20260509163027 | 74 | 118 | 0.9 | 7.8 | 0.00 | 0.00 | 0.00 | 56 | 1011.4 |
| 20260509162506 | 74 | 260 | 0.0 | 7.8 | 0.00 | 0.00 | 0.00 | 55 | 1011.4 |
| 20260509162006 | 74 | 267 | 0.9 | 6.1 | 0.00 | 0.00 | 0.00 | 56 | 1011.4 |
| 20260509161512 | 73 | 146 | 1.7 | 6.1 | 0.00 | 0.00 | 0.00 | 59 | 1011.3 |
| 20260509161010 | 73 | 311 | 1.7 | 7.0 | 0.00 | 0.00 | 0.00 | 59 | 1011.3 |
| 20260509160508 | 73 | 308 | 3.5 | 7.8 | 0.00 | 0.00 | 0.00 | 60 | 1011.3 |
| 20260509160023 | 73 | 257 | 2.6 | 7.8 | 0.00 | 0.00 | 0.00 | 58 | 1011.3 |
| 20260509155508 | 73 | 342 | 0.9 | 5.2 | 0.00 | 0.00 | 0.00 | 61 | 1011.3 |
| 20260509155012 | 72 | 252 | 0.9 | 6.1 | 0.00 | 0.00 | 0.00 | 63 | 1011.4 |
| 20260509154526 | 72 | 265 | 2.6 | 6.1 | 0.00 | 0.00 | 0.00 | 64 | 1011.4 |
| 20260509154014 | 72 | 246 | 1.7 | 7.0 | 0.00 | 0.00 | 0.00 | 63 | 1011.4 |